sat.trackr.live / text

‹ back to catalog

OTTER SDM

NORAD 66678 · 2025-276N

PAYLOAD ACTIVE UNKNOWN

§ Identity

Operator
Country
GER
Launch date
2025-11-28
Launch site
AFWTR
Launch vehicle
Mass (kg)
RCS (m²)

Purposes: earth_obs

External: N2YO · Heavens-Above · Gunter

§ Orbital elements

Epoch: 2026-09-20T03:52:59.500128Z

Period
94.69 min
Inclination
97.4129°
Eccentricity
0.0006402
Mean motion
15.20744609 rev/d
Perigee alt
499.2 km
Apogee alt
508.0 km
Semi-major
6,881.7 km
B*
1.9890e-4
RAAN
335.0859°
Arg perigee
40.4261°
Mean anomaly
319.7449°
Rev number
4,484

§ Raw data

OTTER SDM1 66678U 25276N   26263.16179977  .00004311  00000+0  19890-3 0  99992 66678  97.4129 335.0859 0006402  40.4261 319.7449 15.20744609 44844

JSON: /api/v1/satellites/66678 · /tle

For live sub-satellite position, see the globe view (requires WebGL).

§ Visibility from observer

Set your observer location to see the next 7 days of passes ≥ 10°. The values pass through the URL so the page stays shareable.

No JS? Fill the form by hand. The geolocation button needs JavaScript.

§ Radio — SatNOGS DB

ModeDescriptionDownlinkUplink
GMSK Mode U - Transmitter 401.025 MHz

1 transmitter · refreshed weekly from db.satnogs.org